Regional Weather Roundup
Issued by NWS Charleston, SC

Current Version | Previous Version | Graphics & Text | Print | Product List | Glossary On
Versions: 1 2 3 4 5 6 7 8 9 10 11 12 13 14 15 16 17 18 19 20 21 22 23 24 25 26 27 28 29 30 31 32 33 34 35 36 37 38 39 40 41 42 43 44 45 46 47 48 49 50
000
ASUS42 KCHS 240712
RWRCHS

REGIONAL WEATHER ROUNDUP
NATIONAL WEATHER SERVICE CHARLESTON SC
300 AM EDT SAT JUN 24 2017

NOTE: "FAIR" INDICATES FEW OR NO CLOUDS BELOW 12,000 FEET WITH NO
SIGNIFICANT WEATHER AND/OR OBSTRUCTIONS TO VISIBILITY.

NOT ALL STATIONS ARE QUALITY CONTROLLED. USE DATA WITH CAUTION...
ESPECIALLY DEWPOINT OBSERVATIONS.

SCZ027-030-031-034>040-042>050-240800-
...SOUTHEAST SOUTH CAROLINA...

CITY           SKY/WX    TMP DP  RH WIND       PRES   REMARKS
N CHARLESTON   PTCLDY    79  74  84 S14       29.95F
WATERFRONT PRK   N/A     81  77  88 SW10G21   29.96F
JOHNS ISLAND   CLOUDY    81  77  89 S13G24    29.97F
PINOPOLIS        N/A     79  75  89 S6G14     29.88F
MONCKS CORNER  FAIR      77  73  88 SW12      29.95F
SUMMERVILLE    FAIR      77  73  88 S7        29.96F FOG
BEAUFORT MCAS  CLEAR     81  77  88 S9        29.97F
BEAUFORT ARPT  FAIR      81  75  83 S12       29.97F
HILTON HEAD IS CLEAR     82  77  83 S16G23    29.99F HX  91
WALTERBORO     SUNNY     77  73  88 S9        29.96F
ALLENDALE      FAIR      77  73  88 VRB3      29.95S

...SOUTHERN MIDLANDS AND PEE DEE...

CITY           SKY/WX    TMP DP  RH WIND       PRES   REMARKS
GEORGETOWN     FAIR      79  77  94 SW14G22   29.96F
KINGSTREE      FAIR      77  72  83 S7        29.94R
ORANGEBURG     CLOUDY    78  73  84 SW9       29.95F
BARNWELL       FAIR      79  77  94 SW7       29.96S
AIKEN          FAIR      77  72  83 S8        29.98F
MANNING        PTSUNNY   79  77  94 SW15G23   29.95S
COLUMBIA       PTCLDY    80  74  81 SW10      29.92F
SUMTER         CLOUDY    78  73  87 S13       29.91F
FLORENCE       PTCLDY    78  74  87 SW13      29.92S
MYRTLE BEACH   PTCLDY    80  75  84 SW16G25   29.94F
N MYRTLE BEACH PTCLDY    80  76  87 SW22G33   29.93F

$$

GAZ063-065-086>088-099>101-113>116-118-119-134>141-150-240800-
...SOUTHEAST GEORGIA...

CITY           SKY/WX    TMP DP  RH WIND       PRES   REMARKS
SAVANNAH ARPT  CLEAR     79  73  82 S9        29.98F
HUNTER AAF     CLEAR     79  74  86 CALM      29.96F
FORT STEWART   CLEAR     76  72  88 S5        29.97F
STATESBORO     CLEAR     78  78 100 S7        29.96F
SYLVANIA       SUNNY     77  76  97 SW3       29.97F
CLAXTON        FAIR      76  74  93 CALM      29.98F

...CSRA...CENTRAL AND FAR SOUTHEAST GEORGIA...

CITY           SKY/WX    TMP DP  RH WIND       PRES   REMARKS
THOMSON        CLEAR     77  73  86 W6        30.00S
AUGUSTA-BUSH   CLEAR     80  74  81 S6        29.94S
AUGUSTA-DANIEL CLEAR     81  72  74 SW7       29.95F
SWAINSBORO     FAIR      79  73  83 W5        29.99R
VIDALIA        CLEAR     79  73  83 SW5       29.99S
EASTMAN        FAIR      78  78 100 SW5       30.02S
HAZLEHURST       N/A     79  77  93 SW5       29.98F
ALMA           CLEAR     76  73  91 S5        29.99F
WAYCROSS       CLEAR     77  77 100 S3        30.00S
JESUP          FAIR      75  70  83 CALM      30.00S
BAXLEY         FAIR      77  77 100 SW3       29.98F
BRUNSWICK      CLEAR     79  77  94 S8        30.01F
SAINT SIMONS   CLEAR     81  76  84 VRB7      30.00F

$$

SCZ027-028-034-036>038-045-046-048>050-GAZ119-141-240800-
...LAKE AND SUPPLEMENTAL COASTAL OBSERVATIONS...

STATION/POSITION TIME  TEMP    WIND        PRES    WAVE   SWELL
                       AIR SEA DIR/SP/G            HT/PER HT/PER/DIR
                 (UTC) (F)     (DEG/KT/KT) (MB)    (FT/S) (FT/S/D)
WINYAH BAY       0545   80     210/ 15     1015.0
LAKE MURRAY      0620   82     220/ 11/ 14 1012.2
ACE BASIN NERRS  0545   80     170/  1     1016.0
FORT PULASKI     0636   81 84  220/  8/ 11 1015.8F
SAPELO ISLAND    0600   79     190/  7     1016.0

$$

ANZ835-935-AMZ111-154-330-350-352-354-370-450-454-472-240800-
...C-MAN AND BUOY OBSERVATIONS...

STATION/POSITION TIME  TEMP    WIND        PRES    WAVE   SWELL
                       AIR SEA DIR/SP/G            HT/PER HT/PER/DIR
                 (UTC) (F)     (DEG/KT/KT) (MB)    (FT/S) (FT/S/D)
BUOY 41004       0650   81 81  200/ 21/ 25 1015.0F   6/ 6   2/140/ 8
BUOY 41008       0650   81 82  190/ 21/ 23 1015.3F   5/ 5   2/100/ 9
FOLLY BEACH CMAN 0600   81     200/ 23/ 25 1016.1F
CAPERS NEARSHORE 0608   86 83  220/ 21/ 29 1014.8F
FRIPP NEARSHORE  0608   82 83  210/ 19/ 25 1015.3F


STATION/POSITION TIME  TEMP    WIND        PRES    WAVE   SWELL
                       AIR SEA DIR/SP/G            HT/PER HT/PER/DIR
                 (UTC) (F)     (DEG/KT/KT) (MB)    (FT/S) (FT/S/D)
5E ST. MARYS GA  0630      80                N/A     3/ 5
FRYING PAN BUOY  0650   81 80  210/ 21/ 27 1014.8F   6/ 6   2/130/ 9
BUOY 41025       0650   81 80  220/ 23/ 27 1013.0F   8/ 6   2/290/13
CAPE LOOKOUT NC  0600   80     220/ 12/ 16 1013.9F
BUOY 41002       0650   81 81  210/ 16/ 19 1018.0F   4/ 8   3/100/ 8
BUOY 41010       0650   82 83  170/ 12/ 16 1017.9F   4/ 9   3/140/ 9
ST AUGUSTINE FL  0700   77 78  180/  7/  7 1016.7F


$$




USA.gov is the U.S. government's official web portal to all federal, state and local government web resources and services.